DELTA 1 DEB, 10866

Orbit data source: Space-Track

DELTA 1 DEB, 10866 is space debris in SSO originally from a launch on Thu, 29 Jul 1976 UTC launched from the Air Force Western Test Range (AFWTR). Debris objects in space refer to the collection of defunct objects orbiting the Earth. Examples of debris include non-operational satellites, rocket bodies, and fragments generated from explosions, collisions, or faulty payload assembly.

Loading next visibility...
Identifier
10866, 1976-077CU
Orbit
SSO
Country
Flag of USUS
Related business
Manufacturer
Unknown
Mission
Spacecraft
Bus & Motor
Unknown
Mass
Unknown
Launch date (UTC)
1976-07-29 (50 years ago)
Launch vehicle
Unknown
Launch site
Air Force Western Test Range (AFWTR)
Object type
Payload
Rocket body
Debris
Shape & HBR
Unknown shape, 0.1 m
Radar Cross Section
Medium (>0.1 m² and <1 m²)

Expand to show TLE details & history
Last TLE update: 9 hours ago

TLE from 9 hours ago
0 DELTA 1 DEB
1 10866U 76077CU  26171.42525696 -.00000063  00000-0 -13071-3 0  9990
2 10866 102.7287 138.7753 0150319  56.1706  69.8746 12.30636111240356
Epoch: 2026-06-20T10:12Z
TLE epoch observation values (Epoch: 2026-06-20T10:12:22.201Z)
Latitude
50.63386°
Longitude
-87.05579°
Altitude
1,514.977 km
Speed
7.13 km/s
True Right ascension
22h 18m 42s
True Declination
50° 28' 53"
Sunlit
Object was in daylight at epoch
Visualization orbit readout
Latitude
Unknown
Longitude
Unknown
Altitude
Unknown
Speed
Unknown
Apparent Right ascension
Unknown
Apparent Declination
Unknown
Sunlit
N/A
Visualization observer readout
Local Sidereal Time
06:16:10
Azimuth
Unknown
Elevation
Unknown
Doppler factor
Unknown
Orbital elements
Apogee altitude
1,663.267 km
Perigee altitude
1,425.092 km
Semi-major axis
7,922.317 km
Eccentricity
0.01503
Inclination
102.7287°
RAAN
138.7753°
Arg. of periapsis
56.1706°
True anomaly
71.50226°
Mean anomaly
69.8746°
Eccentric anomaly
70.6874°
Mean motion
3.07797 °/min
Orbital period
116.96 mins
BSTAR
-0.00013071
Loading maneuver chart data...
Computing Atmospheric mass density...
Loading historical data...
Loading historical data...
Loading historical data...
Loading historical data...
Loading historical data...
Loading historical data...
Loading historical data...

Documentation

Showing up to 5 results
|